Year,Month,Day,Hour,Minute,Value (Times are PST for temperature in C)
2012,10,05,00,00,8.30
2012,10,05,00,01,8.30
2012,10,05,00,02,8.30
2012,10,05,00,03,8.30
2012,10,05,00,04,8.20
2012,10,05,00,05,8.20
2012,10,05,00,06,8.20
2012,10,05,00,07,8.20
2012,10,05,00,08,8.20
2012,10,05,00,09,8.20
2012,10,05,00,10,8.20
2012,10,05,00,11,8.20
2012,10,05,00,12,8.10
2012,10,05,00,13,8.10
2012,10,05,00,14,8.10
2012,10,05,00,15,8.10
2012,10,05,00,16,8.10
2012,10,05,00,17,8.10
2012,10,05,00,18,8.10
2012,10,05,00,19,8.10
2012,10,05,00,20,8.10
2012,10,05,00,21,8.10
2012,10,05,00,22,8.10
2012,10,05,00,23,8.10
2012,10,05,00,24,8.10
2012,10,05,00,25,8.10
2012,10,05,00,26,8.10
2012,10,05,00,27,8.00
2012,10,05,00,28,8.00
2012,10,05,00,29,8.00
2012,10,05,00,30,8.00
2012,10,05,00,31,8.00
2012,10,05,00,32,8.00
2012,10,05,00,33,8.00
2012,10,05,00,34,8.00
2012,10,05,00,35,8.00
2012,10,05,00,36,8.00
2012,10,05,00,37,8.00
2012,10,05,00,38,7.90
2012,10,05,00,39,7.90
2012,10,05,00,40,7.90
2012,10,05,00,41,7.90
2012,10,05,00,42,7.90
2012,10,05,00,43,7.90
2012,10,05,00,44,7.90
2012,10,05,00,45,7.90
2012,10,05,00,46,7.80
2012,10,05,00,47,7.80
2012,10,05,00,48,7.80
2012,10,05,00,49,7.70
2012,10,05,00,50,7.70
2012,10,05,00,51,7.70
2012,10,05,00,52,7.70
2012,10,05,00,53,7.60
2012,10,05,00,54,7.60
2012,10,05,00,55,7.60
2012,10,05,00,56,7.60
2012,10,05,00,57,7.60
2012,10,05,00,58,7.60
2012,10,05,00,59,7.60
2012,10,05,01,00,7.60
2012,10,05,01,01,7.60
2012,10,05,01,02,7.60
2012,10,05,01,03,7.60
2012,10,05,01,04,7.60
2012,10,05,01,05,7.60
2012,10,05,01,06,7.70
2012,10,05,01,07,7.70
2012,10,05,01,08,7.70
2012,10,05,01,09,7.70
2012,10,05,01,10,7.70
2012,10,05,01,11,7.80
2012,10,05,01,12,7.80
2012,10,05,01,13,7.80
2012,10,05,01,14,7.80
2012,10,05,01,15,7.80
2012,10,05,01,16,7.80
2012,10,05,01,17,7.80
2012,10,05,01,18,7.80
2012,10,05,01,19,7.90
2012,10,05,01,20,7.90
2012,10,05,01,21,7.90
2012,10,05,01,22,7.90
2012,10,05,01,23,7.90
2012,10,05,01,24,7.80
2012,10,05,01,25,7.80
2012,10,05,01,26,7.80
2012,10,05,01,27,7.80
2012,10,05,01,28,7.80
2012,10,05,01,29,7.70
2012,10,05,01,30,7.70
2012,10,05,01,31,7.70
2012,10,05,01,32,7.70
2012,10,05,01,33,7.60
2012,10,05,01,34,7.60
2012,10,05,01,35,7.60
2012,10,05,01,36,7.50
2012,10,05,01,37,7.50
2012,10,05,01,38,7.50
2012,10,05,01,39,7.50
2012,10,05,01,40,7.50
2012,10,05,01,41,7.50
2012,10,05,01,42,7.50
2012,10,05,01,43,7.40
2012,10,05,01,44,7.40
2012,10,05,01,45,7.40
2012,10,05,01,46,7.40
2012,10,05,01,47,7.40
2012,10,05,01,48,7.50
2012,10,05,01,49,7.50
2012,10,05,01,50,7.50
2012,10,05,01,51,7.50
2012,10,05,01,52,7.50
2012,10,05,01,53,7.60
2012,10,05,01,54,7.50
2012,10,05,01,55,7.60
2012,10,05,01,56,7.50
2012,10,05,01,57,7.50
2012,10,05,01,58,7.50
2012,10,05,01,59,7.50
2012,10,05,02,00,7.50
2012,10,05,02,01,7.50
2012,10,05,02,02,7.50
2012,10,05,02,03,7.60
2012,10,05,02,04,7.60
2012,10,05,02,05,7.60
2012,10,05,02,06,7.60
2012,10,05,02,07,7.60
2012,10,05,02,08,7.70
2012,10,05,02,09,7.70
2012,10,05,02,10,7.70
2012,10,05,02,11,7.70
2012,10,05,02,12,7.70
2012,10,05,02,13,7.70
2012,10,05,02,14,7.70
2012,10,05,02,15,7.70
2012,10,05,02,16,7.70
2012,10,05,02,17,7.70
2012,10,05,02,18,7.60
2012,10,05,02,19,7.60
2012,10,05,02,20,7.60
2012,10,05,02,21,7.50
2012,10,05,02,22,7.50
2012,10,05,02,23,7.40
2012,10,05,02,24,7.40
2012,10,05,02,25,7.40
2012,10,05,02,26,7.30
2012,10,05,02,27,7.30
2012,10,05,02,28,7.30
2012,10,05,02,29,7.30
2012,10,05,02,30,7.20
2012,10,05,02,31,7.20
2012,10,05,02,32,7.20
2012,10,05,02,33,7.20
2012,10,05,02,34,7.20
2012,10,05,02,35,7.10
2012,10,05,02,36,7.10
2012,10,05,02,37,7.10
2012,10,05,02,38,7.00
2012,10,05,02,39,7.00
2012,10,05,02,40,6.90
2012,10,05,02,41,6.90
2012,10,05,02,42,6.90
2012,10,05,02,43,6.80
2012,10,05,02,44,6.80
2012,10,05,02,45,6.80
2012,10,05,02,46,6.80
2012,10,05,02,47,6.80
2012,10,05,02,48,6.70
2012,10,05,02,49,6.70
2012,10,05,02,50,6.70
2012,10,05,02,51,6.70
2012,10,05,02,52,6.70
2012,10,05,02,53,6.70
2012,10,05,02,54,6.60
2012,10,05,02,55,6.60
2012,10,05,02,56,6.60
2012,10,05,02,57,6.60
2012,10,05,02,58,6.50
2012,10,05,02,59,6.50
2012,10,05,03,00,6.50
2012,10,05,03,01,6.40
2012,10,05,03,02,6.40
2012,10,05,03,06,6.40
2012,10,05,03,07,6.40
2012,10,05,03,08,6.40
2012,10,05,03,09,6.40
2012,10,05,03,10,6.40
2012,10,05,03,11,6.40
2012,10,05,03,12,6.40
2012,10,05,03,13,6.40
2012,10,05,03,14,6.40
2012,10,05,03,15,6.40
2012,10,05,03,16,6.40
2012,10,05,03,17,6.40
2012,10,05,03,18,6.40
2012,10,05,03,19,6.40
2012,10,05,03,20,6.40
2012,10,05,03,21,6.40
2012,10,05,03,22,6.40
2012,10,05,03,23,6.40
2012,10,05,03,24,6.50
2012,10,05,03,25,6.50
2012,10,05,03,26,6.60
2012,10,05,03,27,6.70
2012,10,05,03,28,6.70
2012,10,05,03,29,6.80
2012,10,05,03,30,6.80
2012,10,05,03,31,6.80
2012,10,05,03,32,6.80
2012,10,05,03,33,6.80
2012,10,05,03,34,6.80
2012,10,05,03,35,6.80
2012,10,05,03,36,6.90
2012,10,05,03,37,6.90
2012,10,05,03,38,6.90
2012,10,05,03,39,6.90
2012,10,05,03,40,7.00
2012,10,05,03,41,7.00
2012,10,05,03,42,7.00
2012,10,05,03,43,7.00
2012,10,05,03,44,7.00
2012,10,05,03,45,6.90
2012,10,05,03,46,6.90
2012,10,05,03,47,6.90
2012,10,05,03,48,6.90
2012,10,05,03,49,6.80
2012,10,05,03,50,6.80
2012,10,05,03,51,6.80
2012,10,05,03,52,6.80
2012,10,05,03,53,6.70
2012,10,05,03,54,6.70
2012,10,05,03,55,6.60
2012,10,05,03,56,6.60
2012,10,05,03,57,6.60
2012,10,05,03,58,6.50
2012,10,05,03,59,6.50
2012,10,05,04,00,6.50
2012,10,05,04,01,6.50
2012,10,05,04,02,6.40
2012,10,05,04,03,6.40
2012,10,05,04,04,6.40
2012,10,05,04,05,6.30
2012,10,05,04,06,6.30
2012,10,05,04,07,6.30
2012,10,05,04,08,6.30
2012,10,05,04,09,6.30
2012,10,05,04,10,6.20
2012,10,05,04,11,6.20
2012,10,05,04,12,6.20
2012,10,05,04,13,6.20
2012,10,05,04,14,6.20
2012,10,05,04,15,6.20
2012,10,05,04,16,6.20
2012,10,05,04,17,6.20
2012,10,05,04,18,6.30
2012,10,05,04,19,6.30
2012,10,05,04,20,6.30
2012,10,05,04,21,6.30
2012,10,05,04,22,6.30
2012,10,05,04,23,6.30
2012,10,05,04,24,6.30
2012,10,05,04,25,6.30
2012,10,05,04,26,6.20
2012,10,05,04,27,6.20
2012,10,05,04,28,6.20
2012,10,05,04,29,6.20
2012,10,05,04,30,6.20
2012,10,05,04,31,6.20
2012,10,05,04,32,6.20
2012,10,05,04,33,6.20
2012,10,05,04,34,6.20
2012,10,05,04,35,6.20
2012,10,05,04,36,6.20
2012,10,05,04,37,6.20
2012,10,05,04,38,6.20
2012,10,05,04,39,6.10
2012,10,05,04,40,6.10
2012,10,05,04,41,6.10
2012,10,05,04,42,6.10
2012,10,05,04,43,6.10
2012,10,05,04,44,6.00
2012,10,05,04,45,6.00
2012,10,05,04,46,6.00
2012,10,05,04,47,6.00
2012,10,05,04,48,6.00
2012,10,05,04,49,6.00
2012,10,05,04,50,5.90
2012,10,05,04,51,5.90
2012,10,05,04,52,5.90
2012,10,05,04,53,5.90
2012,10,05,04,54,5.80
2012,10,05,04,55,5.80
2012,10,05,04,56,5.80
2012,10,05,04,57,5.80
2012,10,05,04,58,5.80
2012,10,05,04,59,5.80
2012,10,05,05,00,5.80
2012,10,05,05,01,5.70
2012,10,05,05,02,5.70
2012,10,05,05,03,5.70
2012,10,05,05,04,5.70
2012,10,05,05,05,5.70
2012,10,05,05,06,5.70
2012,10,05,05,07,5.70
2012,10,05,05,08,5.70
2012,10,05,05,09,5.70
2012,10,05,05,10,5.70
2012,10,05,05,11,5.70
2012,10,05,05,12,5.70
2012,10,05,05,13,5.70
2012,10,05,05,14,5.70
2012,10,05,05,15,5.60
2012,10,05,05,16,5.60
2012,10,05,05,17,5.60
2012,10,05,05,18,5.60
2012,10,05,05,19,5.60
2012,10,05,05,20,5.50
2012,10,05,05,21,5.50
2012,10,05,05,22,5.50
2012,10,05,05,23,5.40
2012,10,05,05,24,5.40
2012,10,05,05,25,5.40
2012,10,05,05,26,5.40
2012,10,05,05,27,5.40
2012,10,05,05,28,5.40
2012,10,05,05,29,5.40
2012,10,05,05,30,5.40
2012,10,05,05,31,5.40
2012,10,05,05,32,5.30
2012,10,05,05,33,5.30
2012,10,05,05,34,5.30
2012,10,05,05,35,5.30
2012,10,05,05,36,5.30
2012,10,05,05,37,5.40
2012,10,05,05,38,5.40
2012,10,05,05,39,5.40
2012,10,05,05,40,5.40
2012,10,05,05,41,5.50
2012,10,05,05,42,5.50
2012,10,05,05,43,5.50
2012,10,05,05,44,5.50
2012,10,05,05,45,5.60
2012,10,05,05,46,5.60
2012,10,05,05,47,5.60
2012,10,05,05,48,5.60
2012,10,05,05,49,5.60
2012,10,05,05,50,5.60
2012,10,05,05,51,5.60
2012,10,05,05,52,5.60
2012,10,05,05,53,5.60
2012,10,05,05,54,5.60
2012,10,05,05,55,5.60
2012,10,05,05,56,5.60
2012,10,05,05,57,5.60
2012,10,05,05,58,5.60
2012,10,05,05,59,5.60
2012,10,05,06,00,5.60
2012,10,05,06,01,5.60
2012,10,05,06,02,5.60
2012,10,05,06,03,5.50
2012,10,05,06,04,5.50
2012,10,05,06,05,5.50
2012,10,05,06,06,5.50
2012,10,05,06,07,5.50
2012,10,05,06,08,5.50
2012,10,05,06,09,5.50
2012,10,05,06,10,5.50
2012,10,05,06,11,5.50
2012,10,05,06,12,5.60
2012,10,05,06,13,5.60
2012,10,05,06,14,5.60
2012,10,05,06,15,5.60
2012,10,05,06,16,5.70
2012,10,05,06,17,5.70
2012,10,05,06,18,5.70
2012,10,05,06,19,5.70
2012,10,05,06,20,5.80
2012,10,05,06,21,5.80
2012,10,05,06,22,5.80
2012,10,05,06,23,5.80
2012,10,05,06,24,5.70
2012,10,05,06,25,5.70
2012,10,05,06,26,5.60
2012,10,05,06,27,5.60
2012,10,05,06,28,5.60
2012,10,05,06,29,5.60
2012,10,05,06,30,5.50
2012,10,05,06,31,5.50
2012,10,05,06,32,5.40
2012,10,05,06,33,5.40
2012,10,05,06,34,5.40
2012,10,05,06,35,5.30
2012,10,05,06,36,5.30
2012,10,05,06,37,5.30
2012,10,05,06,38,5.20
2012,10,05,06,39,5.20
2012,10,05,06,40,5.10
2012,10,05,06,41,5.10
2012,10,05,06,42,5.10
2012,10,05,06,43,5.10
2012,10,05,06,44,5.10
2012,10,05,06,45,5.00
2012,10,05,06,46,5.00
2012,10,05,06,47,5.00
2012,10,05,06,48,5.00
2012,10,05,06,49,5.00
2012,10,05,06,50,5.00
2012,10,05,06,51,5.00
2012,10,05,06,52,5.00
2012,10,05,06,53,4.90
2012,10,05,06,54,4.90
2012,10,05,06,55,4.90
2012,10,05,06,56,4.90
2012,10,05,06,57,4.90
2012,10,05,06,58,4.90
2012,10,05,06,59,4.90
2012,10,05,07,00,4.90
2012,10,05,07,01,4.90
2012,10,05,07,02,4.80
2012,10,05,07,03,4.90
2012,10,05,07,04,4.90
2012,10,05,07,05,4.90
2012,10,05,07,06,4.90
2012,10,05,07,07,4.90
2012,10,05,07,08,4.80
2012,10,05,07,09,4.80
2012,10,05,07,10,4.80
2012,10,05,07,11,4.80
2012,10,05,07,12,4.80
2012,10,05,07,13,4.80
2012,10,05,07,14,4.80
2012,10,05,07,15,4.80
2012,10,05,07,16,4.80
2012,10,05,07,17,4.80
2012,10,05,07,18,4.80
2012,10,05,07,19,4.80
2012,10,05,07,20,4.80
2012,10,05,07,21,4.90
2012,10,05,07,22,4.90
2012,10,05,07,23,4.90
2012,10,05,07,24,5.00
2012,10,05,07,25,5.00
2012,10,05,07,26,5.10
2012,10,05,07,27,5.10
2012,10,05,07,28,5.10
2012,10,05,07,29,5.10
2012,10,05,07,30,5.20
2012,10,05,07,31,5.20
2012,10,05,07,32,5.20
2012,10,05,07,33,5.20
2012,10,05,07,34,5.20
2012,10,05,07,35,5.20
2012,10,05,07,36,5.20
2012,10,05,07,37,5.20
2012,10,05,07,38,5.20
2012,10,05,07,39,5.20
2012,10,05,07,40,5.20
2012,10,05,07,41,5.20
2012,10,05,07,42,5.30
2012,10,05,07,43,5.30
2012,10,05,07,44,5.30
2012,10,05,07,45,5.30
2012,10,05,07,46,5.30
2012,10,05,07,47,5.30
2012,10,05,07,48,5.30
2012,10,05,07,49,5.30
2012,10,05,07,50,5.30
2012,10,05,07,51,5.30
2012,10,05,07,52,5.30
2012,10,05,07,53,5.30
2012,10,05,07,54,5.30
2012,10,05,07,55,5.30
2012,10,05,07,56,5.30
2012,10,05,07,57,5.30
2012,10,05,07,58,5.30
2012,10,05,07,59,5.30
2012,10,05,08,00,5.30
2012,10,05,08,01,5.20
2012,10,05,08,02,5.20
2012,10,05,08,03,5.20
2012,10,05,08,04,5.10
2012,10,05,08,05,5.10
2012,10,05,08,06,5.10
2012,10,05,08,07,5.00
2012,10,05,08,08,5.00
2012,10,05,08,09,5.00
2012,10,05,08,10,4.90
2012,10,05,08,11,4.90
2012,10,05,08,12,4.90
2012,10,05,08,13,4.90
2012,10,05,08,14,4.90
2012,10,05,08,15,4.80
2012,10,05,08,16,4.80
2012,10,05,08,17,4.80
2012,10,05,08,18,4.80
2012,10,05,08,19,4.80
2012,10,05,08,20,4.80
2012,10,05,08,21,4.80
2012,10,05,08,22,4.80
2012,10,05,08,23,4.80
2012,10,05,08,24,4.80
2012,10,05,08,25,4.80
2012,10,05,08,26,4.80
2012,10,05,08,27,4.90
2012,10,05,08,28,4.90
2012,10,05,08,29,4.90
2012,10,05,08,30,5.00
2012,10,05,08,31,5.00
2012,10,05,08,32,5.10
2012,10,05,08,33,5.10
2012,10,05,08,34,5.10
2012,10,05,08,35,5.20
2012,10,05,08,36,5.20
2012,10,05,08,37,5.20
2012,10,05,08,38,5.20
2012,10,05,08,39,5.30
2012,10,05,08,40,5.30
2012,10,05,08,41,5.30
2012,10,05,08,42,5.40
2012,10,05,08,43,5.50
2012,10,05,08,44,5.60
2012,10,05,08,45,5.70
2012,10,05,08,46,5.80
2012,10,05,08,47,5.90
2012,10,05,08,48,6.00
2012,10,05,08,49,6.10
2012,10,05,08,50,6.20
2012,10,05,08,51,6.30
2012,10,05,08,52,6.40
2012,10,05,08,53,6.60
2012,10,05,08,54,6.70
2012,10,05,08,55,6.80
2012,10,05,08,56,6.90
2012,10,05,08,57,6.90
2012,10,05,08,58,7.00
2012,10,05,08,59,7.10
2012,10,05,09,00,7.20
2012,10,05,09,01,7.30
2012,10,05,09,02,7.30
2012,10,05,09,03,7.40
2012,10,05,09,04,7.50
2012,10,05,09,05,7.50
2012,10,05,09,06,7.60
2012,10,05,09,07,7.60
2012,10,05,09,08,7.70
2012,10,05,09,09,7.80
2012,10,05,09,10,7.80
2012,10,05,09,11,7.90
2012,10,05,09,12,7.90
2012,10,05,09,13,7.90
2012,10,05,09,14,8.00
2012,10,05,09,15,8.00
2012,10,05,09,16,8.00
2012,10,05,09,17,8.00
2012,10,05,09,18,8.00
2012,10,05,09,19,8.00
2012,10,05,09,20,8.00
2012,10,05,09,21,8.10
2012,10,05,09,22,8.10
2012,10,05,09,23,8.10
2012,10,05,09,24,8.10
2012,10,05,09,25,8.10
2012,10,05,09,26,8.10
2012,10,05,09,27,8.10
2012,10,05,09,28,8.20
2012,10,05,09,29,8.20
2012,10,05,09,30,8.20
2012,10,05,09,31,8.20
2012,10,05,09,32,8.30
2012,10,05,09,33,8.30
2012,10,05,09,34,8.40
2012,10,05,09,35,8.40
2012,10,05,09,36,8.50
2012,10,05,09,37,8.60
2012,10,05,09,38,8.60
2012,10,05,09,39,8.70
2012,10,05,09,40,8.70
2012,10,05,09,41,8.80
2012,10,05,09,42,8.80
2012,10,05,09,43,8.90
2012,10,05,09,44,9.00
2012,10,05,09,45,9.10
2012,10,05,09,46,9.20
2012,10,05,09,47,9.30
2012,10,05,09,48,9.50
2012,10,05,09,49,9.50
2012,10,05,09,50,9.60
2012,10,05,09,51,9.70
2012,10,05,09,52,9.70
2012,10,05,09,53,9.80
2012,10,05,09,54,9.90
2012,10,05,09,55,9.90
2012,10,05,09,56,10.00
2012,10,05,09,57,10.00
2012,10,05,09,58,10.10
2012,10,05,09,59,10.10
2012,10,05,10,00,10.20
2012,10,05,10,01,10.20
2012,10,05,10,02,10.20
2012,10,05,10,03,10.30
2012,10,05,10,04,10.30
2012,10,05,10,05,10.30
2012,10,05,10,06,10.30
2012,10,05,10,07,10.30
2012,10,05,10,08,10.40
2012,10,05,10,09,10.40
2012,10,05,10,10,10.50
2012,10,05,10,11,10.60
2012,10,05,10,12,10.60
2012,10,05,10,13,10.70
2012,10,05,10,14,10.70
2012,10,05,10,15,10.70
2012,10,05,10,16,10.70
2012,10,05,10,17,10.70
2012,10,05,10,18,10.80
2012,10,05,10,19,10.80
2012,10,05,10,20,10.90
2012,10,05,10,21,10.90
2012,10,05,10,22,11.00
2012,10,05,10,23,11.10
2012,10,05,10,24,11.10
2012,10,05,10,25,11.20
2012,10,05,10,26,11.20
2012,10,05,10,27,11.30
2012,10,05,10,28,11.30
2012,10,05,10,29,11.40
2012,10,05,10,30,11.40
2012,10,05,10,31,11.50
2012,10,05,10,32,11.50
2012,10,05,10,33,11.60
2012,10,05,10,34,11.60
2012,10,05,10,35,11.70
2012,10,05,10,36,11.70
2012,10,05,10,37,11.70
2012,10,05,10,38,11.70
2012,10,05,10,39,11.70
2012,10,05,10,40,11.70
2012,10,05,10,41,11.70
2012,10,05,10,42,11.70
2012,10,05,10,43,11.80
2012,10,05,10,44,11.80
2012,10,05,10,45,11.80
2012,10,05,10,46,11.90
2012,10,05,10,47,11.90
2012,10,05,10,48,12.00
2012,10,05,10,49,12.00
2012,10,05,10,50,12.10
2012,10,05,10,51,12.10
2012,10,05,10,52,12.20
2012,10,05,10,53,12.20
2012,10,05,10,54,12.30
2012,10,05,10,55,12.30
2012,10,05,10,56,12.30
2012,10,05,10,57,12.40
2012,10,05,10,58,12.40
2012,10,05,10,59,12.40
2012,10,05,11,00,12.40
2012,10,05,11,01,12.40
2012,10,05,11,02,12.40
2012,10,05,11,03,12.40
2012,10,05,11,04,12.40
2012,10,05,11,05,12.40
2012,10,05,11,06,12.50
2012,10,05,11,07,12.50
2012,10,05,11,08,12.60
2012,10,05,11,09,12.60
2012,10,05,11,10,12.60
2012,10,05,11,11,12.60
2012,10,05,11,12,12.60
2012,10,05,11,13,12.70
2012,10,05,11,14,12.70
2012,10,05,11,15,12.70
2012,10,05,11,16,12.70
2012,10,05,11,17,12.80
2012,10,05,11,18,12.80
2012,10,05,11,19,12.80
2012,10,05,11,20,12.90
2012,10,05,11,21,13.00
2012,10,05,11,22,13.10
2012,10,05,11,23,13.20
2012,10,05,11,24,13.30
2012,10,05,11,25,13.30
2012,10,05,11,26,13.40
2012,10,05,11,27,13.50
2012,10,05,11,28,13.60
2012,10,05,11,29,13.70
2012,10,05,11,30,13.70
2012,10,05,11,31,13.70
2012,10,05,11,32,13.80
2012,10,05,11,33,13.80
2012,10,05,11,34,13.90
2012,10,05,11,35,13.90
2012,10,05,11,36,14.00
2012,10,05,11,37,14.10
2012,10,05,11,38,14.10
2012,10,05,11,39,14.20
2012,10,05,11,40,14.20
2012,10,05,11,41,14.20
2012,10,05,11,42,14.30
2012,10,05,11,43,14.30
2012,10,05,11,44,14.30
2012,10,05,11,45,14.40
2012,10,05,11,46,14.40
2012,10,05,11,47,14.50
2012,10,05,11,48,14.50
2012,10,05,11,49,14.60
2012,10,05,11,50,14.60
2012,10,05,11,51,14.60
2012,10,05,11,52,14.60
2012,10,05,11,53,14.70
2012,10,05,11,54,14.70
2012,10,05,11,55,14.70
2012,10,05,11,56,14.70
2012,10,05,11,57,14.80
2012,10,05,11,58,14.80
2012,10,05,11,59,14.80
2012,10,05,12,00,14.80
2012,10,05,12,01,14.90
2012,10,05,12,02,15.00
2012,10,05,12,03,15.10
2012,10,05,12,04,15.20
2012,10,05,12,05,15.20
2012,10,05,12,06,15.30
2012,10,05,12,07,15.30
2012,10,05,12,08,15.30
2012,10,05,12,09,15.30
2012,10,05,12,10,15.40
2012,10,05,12,11,15.40
2012,10,05,12,12,15.50
2012,10,05,12,13,15.60
2012,10,05,12,14,15.60
2012,10,05,12,15,15.70
2012,10,05,12,16,15.70
2012,10,05,12,17,15.80
2012,10,05,12,18,15.80
2012,10,05,12,19,15.90
2012,10,05,12,20,15.90
2012,10,05,12,21,16.00
2012,10,05,12,22,16.00
2012,10,05,12,23,16.10
2012,10,05,12,24,16.20
2012,10,05,12,25,16.30
2012,10,05,12,26,16.40
2012,10,05,12,27,16.50
2012,10,05,12,28,16.60
2012,10,05,12,29,16.60
2012,10,05,12,30,16.70
2012,10,05,12,31,16.70
2012,10,05,12,32,16.70
2012,10,05,12,33,16.70
2012,10,05,12,34,16.70
2012,10,05,12,35,16.80
2012,10,05,12,36,16.80
2012,10,05,12,37,16.80
2012,10,05,12,38,16.90
2012,10,05,12,39,17.00
2012,10,05,12,40,17.10
2012,10,05,12,41,17.10
2012,10,05,12,42,17.10
2012,10,05,12,43,17.20
2012,10,05,12,44,17.20
2012,10,05,12,45,17.30
2012,10,05,12,46,17.30
2012,10,05,12,47,17.40
2012,10,05,12,48,17.40
2012,10,05,12,49,17.50
2012,10,05,12,50,17.60
2012,10,05,12,51,17.70
2012,10,05,12,52,17.80
2012,10,05,12,53,17.90
2012,10,05,12,54,18.00
2012,10,05,12,55,18.00
2012,10,05,12,56,18.10
2012,10,05,12,57,18.10
2012,10,05,12,58,18.20
2012,10,05,12,59,18.20
2012,10,05,13,00,18.30
2012,10,05,13,01,18.30
2012,10,05,13,02,18.30
2012,10,05,13,03,18.30
2012,10,05,13,04,18.40
2012,10,05,13,05,18.50
2012,10,05,13,06,18.60
2012,10,05,13,07,18.70
2012,10,05,13,08,18.80
2012,10,05,13,09,18.90
2012,10,05,13,10,18.90
2012,10,05,13,11,18.90
2012,10,05,13,12,18.90
2012,10,05,13,13,19.00
2012,10,05,13,14,19.00
2012,10,05,13,15,19.00
2012,10,05,13,16,19.10
2012,10,05,13,17,19.20
2012,10,05,13,18,19.20
2012,10,05,13,19,19.30
2012,10,05,13,20,19.30
2012,10,05,13,21,19.40
2012,10,05,13,22,19.40
2012,10,05,13,23,19.40
2012,10,05,13,24,19.40
2012,10,05,13,25,19.40
2012,10,05,13,26,19.40
2012,10,05,13,27,19.40
2012,10,05,13,28,19.40
2012,10,05,13,29,19.50
2012,10,05,13,30,19.60
2012,10,05,13,31,19.70
2012,10,05,13,32,19.80
2012,10,05,13,33,19.80
2012,10,05,13,34,19.80
2012,10,05,13,35,19.90
2012,10,05,13,36,19.90
2012,10,05,13,37,19.90
2012,10,05,13,38,20.00
2012,10,05,13,39,20.10
2012,10,05,13,40,20.10
2012,10,05,13,41,20.10
2012,10,05,13,42,20.10
2012,10,05,13,43,20.10
2012,10,05,13,44,20.20
2012,10,05,13,45,20.20
2012,10,05,13,46,20.20
2012,10,05,13,47,20.20
2012,10,05,13,48,20.30
2012,10,05,13,49,20.40
2012,10,05,13,50,20.50
2012,10,05,13,51,20.60
2012,10,05,13,52,20.80
2012,10,05,13,53,20.90
2012,10,05,13,54,20.90
2012,10,05,13,55,21.00
2012,10,05,13,56,21.00
2012,10,05,13,57,21.00
2012,10,05,13,58,21.10
2012,10,05,13,59,21.10
2012,10,05,14,00,21.20
2012,10,05,14,01,21.30
2012,10,05,14,02,21.30
2012,10,05,14,03,21.40
2012,10,05,14,04,21.50
2012,10,05,14,05,21.50
2012,10,05,14,06,21.50
2012,10,05,14,07,21.50
2012,10,05,14,08,21.40
2012,10,05,14,09,21.40
2012,10,05,14,10,21.40
2012,10,05,14,11,21.40
2012,10,05,14,12,21.40
2012,10,05,14,13,21.40
2012,10,05,14,14,21.50
2012,10,05,14,15,21.50
2012,10,05,14,16,21.60
2012,10,05,14,17,21.60
2012,10,05,14,18,21.60
2012,10,05,14,19,21.60
2012,10,05,14,20,21.70
2012,10,05,14,21,21.70
2012,10,05,14,22,21.80
2012,10,05,14,23,21.80
2012,10,05,14,24,21.80
2012,10,05,14,25,21.80
2012,10,05,14,26,21.80
2012,10,05,14,27,21.80
2012,10,05,14,28,21.80
2012,10,05,14,29,21.80
2012,10,05,14,30,21.80
2012,10,05,14,31,21.80
2012,10,05,14,32,21.70
2012,10,05,14,33,21.70
2012,10,05,14,34,21.70
2012,10,05,14,35,21.70
2012,10,05,14,36,21.80
2012,10,05,14,37,21.80
2012,10,05,14,38,21.80
2012,10,05,14,39,21.80
2012,10,05,14,40,21.90
2012,10,05,14,41,21.90
2012,10,05,14,42,21.90
2012,10,05,14,43,21.90
2012,10,05,14,44,21.90
2012,10,05,14,45,21.90
2012,10,05,14,46,21.90
2012,10,05,14,47,21.90
2012,10,05,14,48,21.90
2012,10,05,14,49,21.90
2012,10,05,14,50,22.00
2012,10,05,14,51,22.00
2012,10,05,14,52,22.00
2012,10,05,14,53,22.00
2012,10,05,14,54,22.00
2012,10,05,14,55,22.00
2012,10,05,14,56,22.00
2012,10,05,14,57,22.00
2012,10,05,14,58,22.00
2012,10,05,14,59,21.90
2012,10,05,15,00,21.80
2012,10,05,15,01,21.80
2012,10,05,15,02,21.90
2012,10,05,15,03,21.80
2012,10,05,15,04,21.80
2012,10,05,15,05,21.70
2012,10,05,15,06,21.70
2012,10,05,15,07,21.70
2012,10,05,15,08,21.60
2012,10,05,15,09,21.60
2012,10,05,15,10,21.50
2012,10,05,15,11,21.50
2012,10,05,15,12,21.50
2012,10,05,15,13,21.50
2012,10,05,15,14,21.50
2012,10,05,15,15,21.50
2012,10,05,15,16,21.60
2012,10,05,15,17,21.60
2012,10,05,15,18,21.60
2012,10,05,15,19,21.60
2012,10,05,15,20,21.60
2012,10,05,15,21,21.60
2012,10,05,15,22,21.60
2012,10,05,15,23,21.60
2012,10,05,15,24,21.60
2012,10,05,15,25,21.70
2012,10,05,15,26,21.70
2012,10,05,15,27,21.70
2012,10,05,15,28,21.70
2012,10,05,15,29,21.70
2012,10,05,15,30,21.70
2012,10,05,15,31,21.70
2012,10,05,15,32,21.70
2012,10,05,15,33,21.70
2012,10,05,15,34,21.60
2012,10,05,15,35,21.60
2012,10,05,15,36,21.60
2012,10,05,15,37,21.60
2012,10,05,15,38,21.60
2012,10,05,15,39,21.60
2012,10,05,15,40,21.60
2012,10,05,15,41,21.70
2012,10,05,15,42,21.70
2012,10,05,15,43,21.70
2012,10,05,15,44,21.70
2012,10,05,15,45,21.70
2012,10,05,15,46,21.70
2012,10,05,15,47,21.70
2012,10,05,15,48,21.70
2012,10,05,15,49,21.70
2012,10,05,15,50,21.70
2012,10,05,15,51,21.70
2012,10,05,15,52,21.70
2012,10,05,15,53,21.70
2012,10,05,15,54,21.60
2012,10,05,15,55,21.60
2012,10,05,15,56,21.50
2012,10,05,15,57,21.50
2012,10,05,15,58,21.50
2012,10,05,15,59,21.50
2012,10,05,16,00,21.50
2012,10,05,16,01,21.50
2012,10,05,16,02,21.50
2012,10,05,16,03,21.60
2012,10,05,16,04,21.60
2012,10,05,16,05,21.70
2012,10,05,16,06,21.70
2012,10,05,16,07,21.60
2012,10,05,16,08,21.60
2012,10,05,16,09,21.60
2012,10,05,16,10,21.60
2012,10,05,16,11,21.50
2012,10,05,16,12,21.40
2012,10,05,16,13,21.30
2012,10,05,16,14,21.20
2012,10,05,16,15,21.20
2012,10,05,16,16,21.10
2012,10,05,16,17,21.10
2012,10,05,16,18,21.10
2012,10,05,16,19,21.10
2012,10,05,16,20,21.10
2012,10,05,16,21,21.00
2012,10,05,16,22,21.00
2012,10,05,16,23,21.00
2012,10,05,16,24,20.90
2012,10,05,16,25,20.90
2012,10,05,16,26,20.90
2012,10,05,16,27,20.90
2012,10,05,16,28,20.90
2012,10,05,16,29,20.90
2012,10,05,16,30,20.90
2012,10,05,16,31,21.00
2012,10,05,16,32,21.00
2012,10,05,16,33,21.00
2012,10,05,16,34,21.00
2012,10,05,16,35,21.00
2012,10,05,16,36,21.00
2012,10,05,16,37,21.00
2012,10,05,16,38,20.90
2012,10,05,16,39,20.90
2012,10,05,16,40,20.90
2012,10,05,16,41,20.90
2012,10,05,16,42,20.90
2012,10,05,16,43,20.90
2012,10,05,16,44,20.90
2012,10,05,16,45,20.90
2012,10,05,16,46,20.90
2012,10,05,16,47,20.90
2012,10,05,16,48,20.90
2012,10,05,16,49,20.90
2012,10,05,16,50,20.80
2012,10,05,16,51,20.80
2012,10,05,16,52,20.80
2012,10,05,16,53,20.80
2012,10,05,16,54,20.80
2012,10,05,16,55,20.70
2012,10,05,16,56,20.70
2012,10,05,16,57,20.70
2012,10,05,16,58,20.70
2012,10,05,16,59,20.70
2012,10,05,17,00,20.70
2012,10,05,17,01,20.70
2012,10,05,17,02,20.70
2012,10,05,17,03,20.70
2012,10,05,17,04,20.80
2012,10,05,17,05,20.70
2012,10,05,17,06,20.80
2012,10,05,17,07,20.80
2012,10,05,17,08,20.80
2012,10,05,17,09,20.80
2012,10,05,17,10,20.80
2012,10,05,17,11,20.80
2012,10,05,17,12,20.80
2012,10,05,17,13,20.80
2012,10,05,17,14,20.90
2012,10,05,17,15,20.90
2012,10,05,17,16,20.90
2012,10,05,17,17,20.80
2012,10,05,17,18,20.80
2012,10,05,17,19,20.80
2012,10,05,17,20,20.80
2012,10,05,17,21,20.80
2012,10,05,17,22,20.80
2012,10,05,17,23,20.80
2012,10,05,17,24,20.80
2012,10,05,17,25,20.70
2012,10,05,17,26,20.70
2012,10,05,17,27,20.70
2012,10,05,17,28,20.80
2012,10,05,17,29,20.80
2012,10,05,17,30,20.80
2012,10,05,17,31,20.80
2012,10,05,17,32,20.80
2012,10,05,17,33,20.80
2012,10,05,17,34,20.80
2012,10,05,17,35,20.80
2012,10,05,17,36,20.80
2012,10,05,17,37,20.80
2012,10,05,17,38,20.80
2012,10,05,17,39,20.80
2012,10,05,17,40,20.80
2012,10,05,17,41,20.80
2012,10,05,17,42,20.80
2012,10,05,17,43,20.70
2012,10,05,17,44,20.70
2012,10,05,17,45,20.70
2012,10,05,17,46,20.70
2012,10,05,17,47,20.70
2012,10,05,17,48,20.70